Regional Weather Roundup
Issued by NWS

Home | Current Version | Previous Version | Graphics & Text | Print | Product List | Glossary On
Versions: 1 2 3 4 5 6 7 8 9 10 11 12 13 14 15 16 17 18 19 20 21 22 23 24 25 26 27 28
000
ASUS45 KCYS 251210
RWRWY

WYOMING REGIONAL WEATHER ROUNDUP
NATIONAL WEATHER SERVICE CHEYENNE WY
600 AM MDT THU AUG 25 2016

NOTE:  "FAIR" INDICATES FEW OR NO CLOUDS BELOW 12,000 FEET
WITH NO SIGNIFICANT WEATHER AND/OR OBSTRUCTIONS TO VISIBILITY.

WYZ001-251300-
YELLOWSTONE NATIONAL PARK

CITY           SKY/WX    TMP DP  RH WIND       PRES   REMARKS
LK YELLOWSTONE   N/A     28  28 100 NW3       30.37F
6HR MIN TEMP:  28; 6HR MAX TEMP:  33;

W YELLOWSTONE  NOT AVBL

$$
WYZ002>013-054>058-071-098>099-251300-
NORTHERN WYOMING

CITY           SKY/WX    TMP DP  RH WIND       PRES   REMARKS
JACKSON        FAIR      37  34  87 NE5       30.30R WCI  34
CODY           CLOUDY    48  41  76 E5        30.31F
GREYBULL       CLOUDY    53  38  56 W6        30.27S
6HR MIN TEMP:  53; 6HR MAX TEMP:  59;

WORLAND        CLOUDY    51  46  83 W5        30.29F
6HR MIN TEMP:  51; 6HR MAX TEMP:  54;

SHERIDAN       FAIR      45  39  79 SW5       30.30F
6HR MIN TEMP:  45; 6HR MAX TEMP:  55;

BUFFALO        CLOUDY    50  38  63 N3        30.33S
6HR MIN TEMP:  50; 6HR MAX TEMP:  53; 6HR PCP: TRACE;

GILLETTE       FAIR      44  40  85 W6        30.30S
6HR MIN TEMP:  44; 6HR MAX TEMP:  53;

HULETT         CLOUDY    50  41  71 SW5       30.31R
NEWCASTLE      RAIN      46  43  87 NW7       30.31F

$$
WYZ014>020-022>026-101>103-251300-
CENTRAL WYOMING

CITY           SKY/WX    TMP DP  RH WIND       PRES   REMARKS
BIG PINEY      FAIR      36  26  67 CALM      30.32S
6HR MIN TEMP:  36; 6HR MAX TEMP:  47;

PINEDALE       FAIR      34  30  86 W5        30.33S WCI  30
DUBOIS         CLOUDY    43  39  87 E9        30.34S
LANDER         CLOUDY    48  44  86 E3        30.32S
6HR MIN TEMP:  48; 6HR MAX TEMP:  51; 6HR PCP: TRACE;

RIVERTON       CLOUDY    48  47  96 CALM      30.33S
6HR MIN TEMP:  47; 6HR MAX TEMP:  50; 6HR PCP:  0.18;

CASPER         CLOUDY    48  46  93 E10       30.32F
6HR MIN TEMP:  47; 6HR MAX TEMP:  51; 6HR PCP:  0.36;

DOUGLAS        LGT RAIN  48  45  89 N8        30.35R
6HR MIN TEMP:  48; 6HR MAX TEMP:  57; 6HR PCP:  0.16;


$$
WYZ021-027>030-104>119-251300-
SOUTHERN WYOMING

CITY           SKY/WX    TMP DP  RH WIND       PRES   REMARKS
EVANSTON       FAIR      42  31  64 E9        30.29S
6HR MIN TEMP:  42; 6HR MAX TEMP:  54;

FORT BRIDGER   FAIR      40  33  75 NE6       30.33S
ROCK SPRINGS   NOT AVBL
DIXON          FAIR      40  33  76 CALM      30.29S
RAWLINS        CLOUDY    48  41  76 NE13      30.31S
6HR MIN TEMP:  48; 6HR MAX TEMP:  53;

SARATOGA       FAIR      36  36 100 CALM      30.30S
LARAMIE        CLOUDY    45  43  93 NW5       30.31R
6HR MIN TEMP:  43; 6HR MAX TEMP:  47;

CHEYENNE       FAIR      47  44  90 N10       30.29R
6HR MIN TEMP:  45; 6HR MAX TEMP:  51;

TORRINGTON     MOCLDY    52  47  83 NE15      30.26R
6HR MIN TEMP:  50; 6HR MAX TEMP:  53;

PINE BLUFFS    FAIR      37  37 100 W7        30.28R WCI  32

$$




USA.gov is the U.S. government's official web portal to all federal, state and local government web resources and services.